1504533601.1,59491,18.38,73554.3,3.53,-30.61,-30.61,0,*78
1504533602.31,59492,18.38,73554.8,3.55,-31.29,-31.17,0,*70
1504533603.56,59493,18.38,73546.5,3.53,-32.91,-32.79,0,*7C
1504533604.79,59494,18.38,73546.5,3.53,-34.25,-34.25,0,*7D
1504533606.02,59495,18.38,73554.3,3.51,-34.07,-34.01,0,*78
1504533607.27,59496,18.38,73552.5,3.49,-35.53,-35.59,0,*7E
1504533608.56,59497,18.38,73554.5,3.45,-32.75,-32.75,0,*79
1504533609.79,59498,18.38,73556.0,3.45,-32.39,-32.51,0,*78
1504533611.07,59499,18.38,73564.0,3.45,-32.75,-32.85,0,*78
1504533612.3,59500,18.38,73560.0,3.43,-33.09,-33.21,0,*7A
1504533613.55,59501,18.38,73558.0,3.43,-34.01,-34.19,0,*78
1504533614.79,59502,18.38,73552.8,3.41,-34.77,-34.77,0,*70
1504533616.04,59503,18.38,73548.0,3.39,-34.53,-34.53,0,*7E
1504533617.3,59504,18.38,73542.8,3.39,-33.49,-33.49,0,*79
1504533618.55,59505,18.38,73540.8,3.37,-32.23,-32.07,0,*70
1504533619.83,59506,18.38,73544.0,3.37,-31.61,-31.73,0,*76
1504533621.08,59507,18.38,73538.3,3.37,-31.01,-30.89,0,*75
1504533622.3,59508,18.38,73540.8,3.39,-31.01,-30.95,0,*79
1504533623.55,59509,18.38,73542.8,3.43,-30.77,-30.95,0,*75
1504533624.78,59510,18.38,73546.3,3.43,-30.45,-30.61,0,*77
1504533626.01,59511,18.38,73532.8,3.43,-30.27,-30.55,0,*75
1504533627.27,59512,18.38,73554.3,3.43,-30.17,-30.17,0,*73
1504533628.56,59513,18.38,73552.3,3.45,-29.39,-29.89,0,*7F
1504533629.84,59514,18.38,73540.0,3.49,-29.13,-29.89,0,*7C
1504533631.07,59515,18.38,73554.5,3.51,-29.73,-30.45,0,*7A
1504533632.3,59516,18.38,73556.8,3.55,-29.57,-30.05,0,*7F
1504533633.51,59517,18.38,73558.5,3.55,-29.83,-30.23,0,*73
1504533634.8,59518,18.38,73554.0,3.53,-29.39,-29.73,0,*76
1504533636.05,59519,18.38,73558.0,3.57,-30.01,-30.23,0,*7D
1504533637.3,59520,18.38,73562.3,3.57,-30.01,-30.11,0,*76
1504533638.53,59521,18.38,73556.5,3.57,-31.17,-31.17,0,*76
1504533639.75,59522,18.38,73556.0,3.61,-31.67,-31.67,0,*70
1504533641.03,59523,18.38,73554.8,3.57,-33.49,-33.61,0,*7E
1504533642.26,59524,18.38,73544.0,3.57,-36.19,-36.19,0,*73
1504533643.48,59525,18.38,73526.3,3.53,-34.25,-34.25,0,*76
1504533644.76,59526,18.38,73526.0,3.53,-31.51,-31.39,0,*7B
1504533646.01,59527,18.38,73504.5,3.51,-30.17,-30.51,0,*74
1504533647.27,59528,18.38,73496.5,3.53,-29.89,-30.27,0,*77
1504533648.53,59529,18.38,73526.8,3.55,-30.01,-30.73,0,*79
1504533649.8,59530,18.38,73538.0,3.55,-29.39,-30.61,0,*71
1504533651.03,59531,18.38,73540.8,3.57,-30.11,-31.17,0,*70
1504533652.27,59532,18.38,73538.3,3.59,-30.83,-31.23,0,*71
1504533653.55,59533,18.38,73544.8,3.57,-30.89,-30.89,0,*75
1504533654.8,59534,18.38,73550.3,3.57,-30.01,-30.11,0,*73
1504533656.05,59535,18.38,73542.3,3.61,-29.73,-29.61,0,*75
1504533657.3,59536,18.38,73536.8,3.61,-30.17,-30.11,0,*73
1504533658.54,59537,18.38,73532.8,3.63,-28.91,-29.13,0,*7D
1504533659.79,59538,18.38,73530.0,3.63,-28.75,-29.13,0,*78
1504533661.07,59539,18.38,73540.8,3.67,-28.21,-28.63,0,*7A
1504533662.36,59540,18.38,73560.8,3.67,-26.97,-28.63,0,*77
1504533663.61,59541,18.38,73560.5,3.71,-28.97,-31.39,0,*78
1504533664.86,59542,18.38,73538.3,3.71,-30.05,-31.79,0,*7D
1504533666.15,59543,18.38,73548.3,3.71,-29.89,-30.73,0,*7B
1504533667.4,59544,18.38,73548.3,3.67,-29.83,-30.39,0,*7F
1504533668.66,59545,18.38,73546.3,3.67,-29.17,-29.83,0,*7A
1504533669.91,59546,18.38,73552.8,3.71,-29.01,-29.79,0,*7C
1504533671.14,59547,18.38,73552.0,3.73,-28.79,-29.61,0,*78
1504533672.39,59548,18.38,73558.8,3.71,-28.63,-29.45,0,*78
1504533673.68,59549,18.38,73558.0,3.71,-29.35,-30.17,0,*74
1504533674.89,59550,18.38,73556.3,3.73,-29.45,-29.83,0,*7C
1504533676.11,59551,18.38,73558.5,3.75,-29.61,-29.95,0,*7A
1504533677.34,59552,18.38,73558.8,3.75,-30.33,-30.33,0,*72
1504533678.61,59553,18.38,73560.8,3.75,-32.45,-32.75,0,*70
1504533679.87,59554,18.38,73562.3,3.75,-35.89,-36.25,0,*71
1504533681.12,59555,18.38,73560.5,3.71,-37.63,-37.87,0,*7B
1504533682.33,59556,18.38,73548.5,3.63,-35.29,-35.47,0,*79
1504533683.55,59557,18.38,73554.3,3.59,-34.41,-34.53,0,*7A
1504533684.84,59558,18.38,73552.8,3.57,-34.19,-34.53,0,*76
1504533686.12,59559,18.38,73544.3,3.57,-34.95,-35.23,0,*75
1504533687.35,59560,18.38,73544.8,3.53,-35.13,-35.29,0,*7E
1504533688.61,59561,18.38,73546.5,3.49,-33.73,-33.95,0,*75
1504533689.87,59562,18.38,73544.8,3.49,-33.73,-34.13,0,*7F
1504533691.1,59563,18.38,73546.3,3.49,-35.59,-35.77,0,*73
1504533692.36,59564,18.38,73552.5,3.41,-35.83,-36.07,0,*7F
1504533693.57,59565,18.38,73544.5,3.39,-34.71,-34.77,0,*78
1504533694.77,59566,18.38,73546.8,3.39,-35.01,-35.17,0,*7A
1504533696.01,59567,18.38,73550.5,3.39,-34.95,-35.01,0,*70
1504533697.21,59568,18.38,73548.5,3.35,-34.89,-35.17,0,*79
1504533698.42,59569,18.38,73550.0,3.35,-34.89,-35.01,0,*7F
1504533699.69,59570,18.38,73546.0,3.31,-34.35,-34.53,0,*72
1504533700.95,59571,18.38,73548.3,3.33,-32.35,-32.19,0,*7F
1504533702.18,59572,18.38,73552.0,3.33,-31.29,-31.05,0,*7C
1504533703.38,59573,18.38,73554.5,3.35,-30.27,-30.27,0,*75
1504533704.65,59574,18.38,73548.5,3.37,-30.83,-30.89,0,*7A
1504533705.9,59575,18.38,73550.0,3.37,-32.39,-32.29,0,*70
1504533707.13,59576,18.38,73548.5,3.35,-33.55,-33.31,0,*72
1504533708.36,59577,18.38,73556.0,3.37,-34.13,-34.13,0,*73
1504533709.62,59578,18.38,73558.8,3.35,-32.85,-32.85,0,*7E
1504533710.83,59579,18.38,73558.8,3.37,-33.95,-34.25,0,*71
1504533712.09,59580,18.38,73556.3,3.33,-36.61,-36.73,0,*7C
1504533713.34,59581,18.38,73546.8,3.31,-35.71,-35.65,0,*79
1504533714.58,59582,18.38,73532.3,3.29,-32.97,-32.97,0,*76
1504533715.85,59583,18.38,73534.5,3.29,-32.75,-32.75,0,*77
1504533717.05,59584,18.38,73542.3,3.29,-30.27,-30.11,0,*75
1504533718.31,59585,18.38,73546.3,3.33,-29.83,-30.01,0,*78
1504533719.57,59586,18.38,73544.3,3.33,-31.11,-31.05,0,*7C
1504533720.84,59587,18.38,73548.5,3.33,-30.55,-30.55,0,*78
1504533722.1,59588,18.38,73550.0,3.37,-30.51,-30.33,0,*77
1504533723.33,59589,18.38,73554.8,3.37,-29.95,-29.83,0,*75
1504533724.53,59590,18.38,73552.8,3.39,-29.61,-29.79,0,*7D
1504533725.81,59591,18.38,73552.5,3.41,-29.13,-29.39,0,*72
1504533727.03,59592,18.38,73556.8,3.43,-29.23,-29.39,0,*70
1504533728.32,59593,18.38,73558.3,3.45,-29.89,-29.89,0,*7C
1504533729.55,59594,18.38,73558.3,3.49,-29.79,-29.83,0,*72
1504533730.81,59595,18.38,73560.8,3.51,-30.05,-30.17,0,*7C
1504533732.04,59596,18.38,73556.8,3.51,-29.73,-29.61,0,*7F
1504533733.3,59597,18.38,73562.3,3.53,-30.83,-30.77,0,*74
1504533734.57,59598,18.38,73566.8,3.53,-30.83,-30.77,0,*7B
1504533735.83,59599,18.38,73572.0,3.53,-31.17,-31.11,0,*77
1504533737.09,59600,18.38,73562.3,3.53,-31.33,-31.11,0,*72
1504533738.35,59601,18.38,73556.8,3.55,-30.95,-30.77,0,*79
1504533739.61,59602,18.38,73562.8,3.53,-29.95,-30.05,0,*71
1504533740.84,59603,18.38,73568.5,3.57,-31.17,-31.45,0,*72
1504533742.1,59604,18.38,73560.0,3.57,-31.33,-31.61,0,*75
1504533743.39,59605,18.38,73558.5,3.57,-31.85,-32.19,0,*75
1504533744.62,59606,18.38,73550.5,3.57,-32.57,-32.51,0,*76
1504533745.83,59607,18.38,73546.3,3.55,-33.21,-32.91,0,*79
1504533747.06,59608,18.38,73548.8,3.55,-31.61,-31.33,0,*7B
1504533748.28,59609,18.38,73554.8,3.55,-30.45,-30.39,0,*76
1504533749.53,59610,18.38,73554.0,3.55,-30.61,-30.55,0,*72
1504533750.76,59611,18.38,73544.8,3.57,-30.23,-30.45,0,*76
1504533752.01,59612,18.38,73556.5,3.59,-30.01,-30.51,0,*7E
1504533753.26,59613,18.38,73562.8,3.61,-31.33,-31.51,0,*75
1504533754.51,59614,18.38,73556.5,3.57,-35.41,-35.47,0,*75
1504533755.77,59615,18.38,73556.0,3.53,-37.39,-37.57,0,*7E
1504533757.04,59616,18.38,73546.3,3.49,-35.53,-35.53,0,*7E
1504533758.3,59617,18.38,73540.8,3.45,-35.23,-35.29,0,*79
1504533759.53,59618,18.38,73530.3,3.43,-33.67,-33.43,0,*7C
1504533760.76,59619,18.38,73534.5,3.45,-31.29,-31.05,0,*73
1504533761.99,59620,18.38,73540.8,3.43,-31.11,-31.29,0,*7A
1504533763.25,59621,18.38,73548.8,3.43,-30.61,-30.61,0,*70
1504533764.47,59622,18.38,73552.5,3.45,-28.85,-28.97,0,*76
1504533765.76,59623,18.38,73554.3,3.45,-29.35,-29.89,0,*73
1504533766.99,59624,18.38,73550.8,3.51,-29.73,-29.57,0,*70
1504533768.23,59625,18.38,73544.0,3.51,-28.69,-28.25,0,*7F
1504533769.48,59626,18.38,73548.0,3.53,-29.73,-29.95,0,*7E
1504533770.72,59627,18.38,73554.3,3.55,-29.39,-29.83,0,*70
1504533771.98,59628,18.38,73556.3,3.55,-29.01,-29.51,0,*7B
1504533773.21,59629,18.38,73560.8,3.55,-27.67,-28.63,0,*74
1504533774.44,59630,18.38,73560.5,3.59,-28.31,-29.01,0,*79
1504533775.69,59631,18.38,73556.8,3.59,-28.43,-28.59,0,*71
1504533776.94,59632,18.38,73548.5,3.61,-28.25,-28.37,0,*71
1504533778.16,59633,18.38,73554.8,3.63,-26.61,-27.39,0,*7D
1504533779.41,59634,18.38,73552.0,3.63,-26.55,-28.43,0,*7F
1504533780.64,59635,18.38,73558.3,3.67,-24.51,-26.49,0,*78
1504533781.89,59636,18.38,73554.5,3.71,-25.91,-27.61,0,*7A
1504533783.12,59637,18.38,73562.0,3.73,-25.91,-27.35,0,*78
1504533784.35,59638,18.38,73570.5,3.73,-26.61,-28.21,0,*71
1504533785.6,59639,18.38,73560.8,3.75,-32.23,-32.79,0,*73
1504533786.8,59640,18.38,73560.3,3.73,-34.41,-34.47,0,*72
1504533788.08,59641,18.38,73554.8,3.67,-33.31,-33.43,0,*75
1504533789.36,59642,18.38,73538.5,3.67,-30.95,-30.95,0,*73
1504533790.62,59643,18.38,73546.8,3.65,-31.11,-30.95,0,*7D
1504533791.88,59644,18.38,73560.0,3.65,-30.73,-30.73,0,*77
1504533793.14,59645,18.38,73550.5,3.67,-30.95,-31.17,0,*7F
1504533794.4,59646,18.38,73532.3,3.67,-30.95,-31.17,0,*7C
1504533795.65,59647,18.38,73530.5,3.67,-30.05,-29.95,0,*77
1504533796.88,59648,18.38,73536.0,3.71,-29.61,-29.61,0,*7E
1504533798.16,59649,18.38,73534.0,3.71,-28.63,-29.51,0,*7F
1504533799.38,59650,18.38,73536.3,3.73,-29.13,-29.57,0,*75
1504533800.66,59651,18.38,73546.8,3.71,-26.29,-26.97,0,*73
1504533801.89,59652,18.38,73544.5,3.73,-25.39,-28.43,0,*77
1504533803.15,59653,18.38,73552.5,3.73,-26.77,-30.77,0,*71
1504533804.41,59654,18.38,73556.8,3.71,-21.57,-25.09,0,*7C
1504533805.65,59655,18.38,73566.0,3.75,-19.81,-22.11,0,*77
1504533806.87,59656,18.38,73560.8,3.75,-21.43,-25.39,0,*7C
1504533808.07,59657,18.38,73550.3,3.77,-22.27,-25.39,0,*7E
1504533809.3,59658,18.38,73568.0,3.77,-23.43,-27.19,0,*72
1504533810.52,59659,18.38,73560.3,3.77,-30.73,-33.03,0,*7C
1504533811.76,59660,18.38,73552.0,3.75,-32.79,-34.25,0,*7F
1504533813.02,59661,18.38,73550.5,3.75,-32.13,-32.75,0,*71
1504533814.29,59662,18.38,73542.3,3.71,-31.91,-32.29,0,*76
1504533815.52,59663,18.38,73542.3,3.73,-30.33,-30.61,0,*72
1504533816.76,59664,18.38,73542.5,3.73,-29.83,-31.23,0,*71
1504533818.0,59665,18.38,73546.3,3.71,-27.77,-29.29,0,*74
1504533819.28,59666,18.38,73554.8,3.71,-28.79,-30.39,0,*7F
1504533820.48,59667,18.38,73550.3,3.73,-29.23,-30.11,0,*78
1504533821.73,59668,18.38,73556.3,3.75,-30.01,-30.67,0,*78
1504533823.01,59669,18.38,73558.0,3.71,-29.01,-29.51,0,*78
1504533824.25,59670,18.38,73556.0,3.75,-28.97,-29.29,0,*75
1504533825.48,59671,18.38,73558.5,3.77,-28.05,-28.53,0,*71
1504533826.71,59672,18.38,73552.8,3.77,-28.91,-29.57,0,*7A
1504533827.96,59673,18.38,73556.5,3.77,-29.73,-31.11,0,*7D
1504533829.16,59674,18.38,73556.0,3.77,-30.23,-31.33,0,*77
1504533830.35,59675,18.38,73550.3,3.77,-31.67,-33.03,0,*76
1504533831.61,59676,18.38,73546.8,3.75,-33.73,-34.77,0,*74
1504533832.84,59677,18.38,73550.3,3.71,-32.01,-33.15,0,*76
1504533834.1,59678,18.38,73550.3,3.65,-32.75,-34.01,0,*7D
1504533835.35,59679,18.38,73552.5,3.65,-30.05,-30.55,0,*7C
1504533836.61,59680,18.38,73552.5,3.67,-29.57,-29.89,0,*7E
1504533837.9,59681,18.38,73554.3,3.67,-29.39,-29.51,0,*72
1504533839.18,59682,18.38,73554.5,3.71,-31.57,-31.57,0,*78
1504533840.43,59683,18.38,73548.0,3.71,-33.03,-32.97,0,*75
1504533841.68,59684,18.38,73538.8,3.71,-32.45,-32.51,0,*7B
1504533842.94,59685,18.38,73556.3,3.71,-31.57,-31.45,0,*7C
1504533844.17,59686,18.38,73558.8,3.65,-33.49,-33.67,0,*75
1504533845.38,59687,18.38,73554.5,3.65,-36.01,-36.07,0,*7E
1504533846.65,59688,18.38,73554.5,3.61,-35.35,-35.53,0,*73
1504533847.91,59689,18.38,73550.0,3.57,-35.23,-35.29,0,*7D
1504533849.15,59690,18.38,73554.0,3.57,-34.77,-34.77,0,*7F
1504533850.4,59691,18.38,73552.0,3.53,-35.17,-35.35,0,*7A
1504533851.61,59692,18.38,73546.8,3.51,-35.01,-35.17,0,*7C
1504533852.86,59693,18.38,73536.5,3.49,-35.01,-34.83,0,*78
1504533854.14,59694,18.38,73530.3,3.49,-36.49,-36.49,0,*74
1504533855.37,59695,18.38,73542.3,3.43,-36.61,-36.73,0,*7C
1504533856.6,59696,18.38,73554.0,3.39,-34.53,-34.71,0,*71
1504533857.8,59697,18.38,73544.0,3.35,-36.85,-36.85,0,*7C
1504533859.02,59698,18.38,73538.3,3.35,-34.77,-35.01,0,*73
1504533860.3,59699,18.38,73548.3,3.31,-34.53,-34.53,0,*76
1504533861.55,59700,18.38,73544.3,3.31,-33.77,-33.67,0,*76
1504533862.83,59701,18.38,73544.0,3.31,-34.01,-34.01,0,*76
1504533864.1,59702,18.38,73538.0,3.31,-33.27,-33.09,0,*79
1504533865.36,59703,18.38,73532.8,3.29,-32.75,-32.75,0,*7D
1504533866.59,59704,18.38,73544.8,3.29,-31.29,-31.51,0,*75
1504533867.87,59705,18.38,73552.8,3.31,-33.09,-32.75,0,*78
1504533869.09,59706,18.38,73560.0,3.31,-32.35,-32.39,0,*7D
1504533870.34,59707,18.38,73546.3,3.27,-34.77,-34.83,0,*7C
1504533871.59,59708,18.38,73520.5,3.27,-34.07,-33.89,0,*79
1504533872.82,59709,18.38,73536.8,3.29,-32.45,-32.39,0,*7C
1504533874.05,59710,18.38,73542.0,3.29,-28.91,-29.23,0,*77
1504533875.27,59711,18.38,73530.3,3.31,-28.85,-29.61,0,*7C
1504533876.54,59712,18.38,73512.5,3.35,-27.61,-28.05,0,*7D
1504533877.74,59713,18.38,73538.3,3.35,-25.91,-25.87,0,*76
1504533878.99,59714,18.38,73538.3,3.35,-22.31,-23.29,0,*7E
1504533880.21,59715,18.38,73540.5,3.35,-19.41,-21.73,0,*7D
1504533881.44,59716,18.44,73546.0,3.37,-17.73,-22.87,0,*7B
1504533882.67,59717,18.38,73560.5,3.39,-17.87,-23.23,0,*70
1504533883.93,59718,18.38,73558.0,3.41,-21.17,-26.81,0,*71
1504533885.18,59719,18.38,73548.5,3.45,-24.77,-28.47,0,*73
1504533886.46,59720,18.38,73546.5,3.45,-29.17,-31.61,0,*7E
1504533887.69,59721,18.38,73532.5,3.43,-33.27,-35.13,0,*70
1504533888.92,59722,18.38,73540.8,3.43,-33.21,-34.65,0,*75
1504533890.21,59723,18.38,73550.0,3.41,-32.45,-33.43,0,*76
1504533891.41,59724,18.38,73544.3,3.39,-32.39,-32.91,0,*7B
1504533892.61,59725,18.38,73542.5,3.39,-34.07,-34.59,0,*73
1504533893.87,59726,18.38,73546.8,3.35,-35.23,-35.53,0,*70
1504533895.15,59727,18.38,73520.0,3.31,-38.49,-38.79,0,*71
1504533896.4,59728,18.38,73520.5,3.27,-38.85,-39.15,0,*72
1504533897.65,59729,18.38,73522.5,3.21,-35.83,-35.83,0,*7D
1504533898.91,59730,18.38,73518.5,3.21,-33.27,-33.27,0,*75
1504533900.13,59731,18.38,73518.0,3.17,-31.85,-31.67,0,*7D
1504533901.35,59732,18.38,73508.8,3.19,-31.67,-31.79,0,*73
1504533902.61,59733,18.38,73516.5,3.21,-30.61,-30.89,0,*70
1504533903.83,59734,18.38,73530.8,3.21,-30.33,-30.55,0,*71
1504533905.08,59735,18.38,73528.5,3.27,-30.67,-31.23,0,*77
1504533906.33,59736,18.38,73518.0,3.27,-31.01,-31.39,0,*7E
1504533907.56,59737,18.38,73514.8,3.29,-31.23,-31.33,0,*7B
1504533908.81,59738,18.38,73520.8,3.27,-31.73,-32.13,0,*7E
1504533910.04,59739,18.38,73532.3,3.27,-30.27,-30.83,0,*74
1504533911.27,59740,18.38,73546.3,3.29,-29.57,-30.51,0,*74
1504533912.53,59741,18.38,73542.3,3.29,-32.07,-32.63,0,*79
1504533913.79,59742,18.38,73544.3,3.29,-32.79,-33.09,0,*7E
1504533915.02,59743,18.38,73534.5,3.29,-33.67,-33.77,0,*78
1504533916.27,59744,18.38,73526.8,3.27,-35.07,-35.01,0,*76
1504533917.52,59745,18.38,73534.5,3.25,-36.91,-37.09,0,*73
1504533918.72,59746,18.38,73540.8,3.17,-36.97,-36.97,0,*71
1504533919.95,59747,18.38,73542.5,3.15,-35.01,-35.01,0,*72
1504533921.18,59748,18.38,73538.0,3.15,-33.67,-33.67,0,*7D
1504533922.42,59749,18.38,73540.8,3.13,-35.23,-35.23,0,*7A
1504533923.64,59750,18.38,73546.3,3.13,-33.89,-33.83,0,*78
1504533924.88,59751,18.38,73530.8,3.13,-33.73,-33.37,0,*73
1504533926.13,59752,18.38,73534.8,3.09,-32.45,-32.19,0,*72
1504533927.37,59753,18.38,73540.0,3.13,-32.29,-32.45,0,*7B
1504533928.59,59754,18.38,73546.3,3.13,-31.05,-31.39,0,*79
1504533929.79,59755,18.38,73538.0,3.13,-31.17,-31.33,0,*71
1504533931.04,59756,18.38,73524.5,3.15,-31.79,-32.29,0,*74
1504533932.26,59757,18.38,73516.5,3.17,-31.33,-31.11,0,*71
1504533933.51,59758,18.38,73526.3,3.15,-30.27,-30.51,0,*7D
1504533934.77,59759,18.38,73544.8,3.15,-28.75,-28.79,0,*71
1504533936.0,59760,18.38,73558.5,3.19,-26.65,-27.93,0,*73
1504533937.23,59761,18.38,73550.5,3.19,-28.15,-30.33,0,*77
1504533938.46,59762,18.38,73552.3,3.21,-28.85,-30.39,0,*7C
1504533939.69,59763,18.38,73542.3,3.21,-29.83,-30.39,0,*7A
1504533940.89,59764,18.38,73540.8,3.25,-30.11,-30.33,0,*70
1504533942.13,59765,18.38,73544.0,3.25,-31.39,-31.73,0,*7F
1504533943.37,59766,18.38,73540.0,3.21,-30.55,-31.11,0,*77
1504533944.62,59767,18.38,73526.8,3.25,-32.45,-32.79,0,*7C
1504533945.84,59768,18.38,73520.0,3.25,-32.57,-32.63,0,*7B
1504533947.07,59769,18.38,73538.3,3.25,-30.51,-30.67,0,*78
1504533948.27,59770,18.38,73546.0,3.25,-29.23,-30.27,0,*79
1504533949.49,59771,18.38,73538.0,3.29,-30.39,-31.17,0,*75
1504533950.74,59772,18.38,73554.0,3.27,-30.73,-31.01,0,*71
1504533951.99,59773,18.38,73550.0,3.27,-30.27,-30.55,0,*71
1504533953.18,59774,18.38,73540.5,3.29,-31.67,-31.67,0,*7D
1504533954.41,59775,18.38,73540.3,3.31,-31.01,-30.83,0,*7E
1504533955.64,59776,18.38,73550.3,3.31,-31.33,-31.29,0,*7D
1504533956.92,59777,18.38,73540.5,3.31,-31.11,-31.51,0,*73
1504533958.14,59778,18.38,73540.0,3.31,-31.17,-31.01,0,*7F
1504533959.37,59779,18.38,73538.3,3.33,-29.23,-29.23,0,*7B
1504533960.62,59780,18.38,73550.0,3.35,-28.25,-28.43,0,*7B
1504533961.87,59781,18.38,73542.0,3.37,-28.15,-28.43,0,*7B
1504533963.13,59782,18.38,73542.3,3.41,-29.95,-30.05,0,*7B
1504533964.36,59783,18.38,73542.8,3.39,-30.61,-30.67,0,*72
1504533965.62,59784,18.44,73546.8,3.41,-29.45,-29.39,0,*77
1504533966.85,59785,18.38,73540.3,3.43,-29.39,-29.23,0,*74
1504533968.12,59786,18.38,73546.0,3.45,-30.05,-29.89,0,*76
1504533969.33,59787,18.38,73540.3,3.51,-29.95,-29.79,0,*7C
1504533970.56,59788,18.38,73538.0,3.49,-31.17,-31.17,0,*78
1504533971.77,59789,18.38,73544.0,3.51,-30.11,-30.33,0,*70
1504533973.05,59790,18.38,73536.0,3.49,-28.47,-29.51,0,*77
1504533974.3,59791,18.38,73538.0,3.51,-28.59,-30.51,0,*78
1504533975.56,59792,18.38,73542.8,3.51,-28.05,-29.89,0,*7F
1504533976.79,59793,18.38,73544.5,3.51,-28.09,-29.79,0,*7D
1504533978.05,59794,18.38,73538.3,3.51,-27.83,-30.17,0,*77
1504533979.28,59795,18.38,73524.8,3.55,-27.99,-28.85,0,*7B
1504533980.52,59796,18.38,73532.8,3.53,-29.57,-29.57,0,*7C
1504533981.78,59797,18.38,73526.3,3.55,-29.35,-29.89,0,*7C
1504533983.06,59798,18.38,73542.8,3.57,-29.73,-30.01,0,*7B
1504533984.34,59799,18.38,73530.5,3.57,-27.99,-28.09,0,*71
1504533985.57,59800,18.44,73544.8,3.61,-28.37,-29.57,0,*7A
1504533986.83,59801,18.38,73546.3,3.57,-29.89,-30.23,0,*71
1504533988.05,59802,18.44,73548.3,3.61,-28.69,-29.07,0,*76
1504533989.3,59803,18.38,73544.0,3.61,-29.61,-30.01,0,*70
1504533990.51,59804,18.38,73542.5,3.63,-29.45,-29.57,0,*78
1504533991.73,59805,18.38,73544.8,3.63,-29.45,-29.39,0,*71
1504533992.96,59806,18.38,73542.3,3.63,-29.79,-29.89,0,*76
1504533994.16,59807,18.44,73544.0,3.63,-30.33,-30.11,0,*78
1504533995.39,59808,18.38,73546.0,3.65,-29.89,-29.95,0,*7C
1504533996.62,59809,18.38,73544.3,3.67,-30.23,-30.23,0,*72
1504533997.86,59810,18.38,73544.5,3.67,-30.45,-30.55,0,*7B
1504533999.15,59811,18.38,73544.8,3.67,-30.77,-30.89,0,*7A
1504534000.36,59812,18.44,73548.8,3.65,-29.95,-29.83,0,*7D
1504534001.59,59813,18.38,73550.3,3.67,-30.27,-30.27,0,*79
1504534002.85,59814,18.38,73548.8,3.71,-30.73,-30.83,0,*76
1504534004.08,59815,18.38,73550.5,3.71,-33.15,-33.21,0,*7F
1504534005.28,59816,18.44,73548.0,3.65,-33.83,-34.13,0,*70
1504534006.52,59817,18.38,73548.0,3.65,-32.85,-32.91,0,*7A
1504534007.74,59818,18.44,73552.8,3.63,-31.57,-31.67,0,*75
1504534008.99,59819,18.38,73552.0,3.63,-30.77,-30.51,0,*73
1504534010.21,59820,18.38,73552.5,3.63,-29.79,-29.73,0,*77
1504534011.44,59821,18.38,73554.0,3.65,-30.95,-31.01,0,*76
1504534012.65,59822,18.38,73552.3,3.65,-31.17,-31.17,0,*79
1504534013.93,59823,18.38,73552.0,3.67,-30.95,-30.95,0,*7A
1504534015.14,59824,18.44,73552.5,3.65,-31.79,-31.79,0,*7F
1504534016.39,59825,18.38,73550.8,3.65,-30.89,-30.95,0,*73
1504534017.62,59826,18.38,73554.5,3.67,-32.51,-32.69,0,*74
1504534018.86,59827,18.38,73556.8,3.65,-32.91,-33.27,0,*70
1504534020.11,59828,18.38,73556.3,3.63,-34.19,-34.65,0,*7E
1504534021.39,59829,18.38,73556.3,3.61,-33.27,-33.31,0,*71
1504534022.66,59830,18.38,73554.0,3.61,-32.63,-32.63,0,*7E
1504534023.89,59831,18.38,73556.0,3.57,-32.39,-32.39,0,*7A
1504534025.14,59832,18.38,73558.0,3.59,-31.57,-31.57,0,*77
1504534026.37,59833,18.38,73558.0,3.59,-31.91,-31.79,0,*70
1504534027.56,59834,18.38,73558.5,3.59,-32.35,-32.35,0,*71
1504534028.81,59835,18.38,73558.5,3.57,-32.19,-32.35,0,*70
1504534030.04,59836,18.38,73560.0,3.57,-32.13,-32.01,0,*7E
1504534031.31,59837,18.38,73558.5,3.57,-32.69,-32.75,0,*71
1504534032.57,59838,18.38,73562.5,3.57,-33.09,-33.21,0,*79
1504534033.81,59839,18.38,73564.0,3.55,-32.69,-32.75,0,*7D
1504534035.03,59840,18.38,73566.3,3.57,-33.95,-34.13,0,*75
1504534036.27,59841,18.38,73558.8,3.53,-32.39,-32.39,0,*79
1504534037.53,59842,18.38,73554.5,3.55,-31.11,-31.11,0,*7C
1504534038.78,59843,18.38,73558.8,3.55,-29.17,-29.73,0,*7F
1504534040.05,59844,18.38,73552.8,3.53,-28.43,-29.13,0,*78
1504534041.3,59845,18.38,73556.3,3.57,-29.23,-30.05,0,*75
1504534042.52,59846,18.38,73548.8,3.57,-32.35,-32.57,0,*7E
1504534043.75,59847,18.38,73544.8,3.57,-31.33,-31.33,0,*7B
1504534045.0,59848,18.38,73560.5,3.59,-30.51,-30.51,0,*7A
1504534046.26,59849,18.38,73560.8,3.57,-32.57,-32.75,0,*75
1504534047.5,59850,18.38,73560.8,3.57,-35.47,-35.29,0,*75
1504534048.78,59851,18.38,73558.5,3.53,-36.13,-36.25,0,*7D
1504534050.03,59852,18.38,73548.5,3.49,-35.59,-35.41,0,*79
1504534051.28,59853,18.38,73554.5,3.43,-33.61,-33.43,0,*7B
1504534052.54,59854,18.38,73548.8,3.43,-34.95,-35.07,0,*76
1504534053.76,59855,18.38,73554.3,3.39,-35.65,-35.71,0,*75
1504534054.99,59856,18.38,73554.5,3.39,-34.71,-34.53,0,*73
1504534056.27,59857,18.38,73544.8,3.37,-34.83,-34.83,0,*7C
1504534057.5,59858,18.38,73538.3,3.35,-35.07,-34.89,0,*76
1504534058.75,59859,18.38,73540.3,3.31,-33.15,-32.75,0,*73
1504534059.98,59860,18.38,73534.0,3.33,-31.29,-31.05,0,*72
1504534061.26,59861,18.38,73534.3,3.33,-30.95,-30.55,0,*71
1504534062.52,59862,18.38,73542.5,3.37,-30.67,-30.39,0,*71
1504534063.77,59863,18.38,73548.0,3.37,-30.83,-30.51,0,*74
1504534065.05,59864,18.38,73548.5,3.37,-30.73,-30.51,0,*7C
1504534066.31,59865,18.38,73534.0,3.41,-30.95,-31.01,0,*70
1504534067.54,59866,18.38,73536.0,3.41,-30.67,-30.23,0,*7F
1504534068.74,59867,18.38,73542.8,3.43,-29.67,-29.23,0,*7C
1504534069.96,59868,18.38,73550.0,3.45,-30.23,-30.27,0,*71
1504534071.22,59869,18.38,73550.5,3.45,-31.11,-31.05,0,*71
1504534072.45,59870,18.38,73562.8,3.45,-30.27,-30.23,0,*78
1504534073.71,59871,18.44,73560.3,3.49,-29.95,-30.39,0,*7F
1504534074.92,59872,18.44,73560.8,3.51,-30.27,-30.67,0,*7F
1504534076.19,59873,18.44,73552.3,3.51,-32.75,-33.43,0,*7E
1504534077.45,59874,18.38,73552.5,3.51,-32.75,-32.79,0,*71
1504534078.69,59875,18.38,73542.5,3.49,-32.35,-32.29,0,*78
1504534079.89,59876,18.38,73540.5,3.51,-31.17,-31.01,0,*78
1504534081.15,59877,18.38,73534.0,3.49,-30.55,-30.67,0,*76
1504534082.39,59878,18.38,73554.8,3.49,-30.83,-31.45,0,*73
1504534083.65,59879,18.38,73568.0,3.49,-27.39,-29.67,0,*7C
1504534084.88,59880,18.38,73560.5,3.51,-28.05,-31.01,0,*7A
1504534086.11,59881,18.44,73554.8,3.51,-28.43,-30.11,0,*79
1504534087.33,59882,18.38,73546.8,3.51,-28.75,-29.61,0,*70
1504534088.56,59883,18.38,73540.5,3.53,-29.61,-29.95,0,*7C
1504534089.84,59884,18.44,73546.0,3.53,-28.75,-28.91,0,*7A
1504534091.08,59885,18.38,73544.8,3.55,-29.23,-30.01,0,*7F
1504534092.33,59886,18.38,73554.8,3.57,-29.67,-30.05,0,*7A
1504534093.6,59887,18.38,73556.0,3.59,-29.51,-30.17,0,*73
1504534094.84,59888,18.38,73556.0,3.59,-28.47,-29.29,0,*7F
1504534096.05,59889,18.44,73554.8,3.59,-28.15,-28.79,0,*7D
1504534097.31,59890,18.38,73556.5,3.61,-27.07,-28.09,0,*75
1504534098.53,59891,18.38,73560.8,3.63,-26.93,-29.07,0,*75
1504534099.75,59892,18.38,73560.3,3.63,-28.59,-29.79,0,*77
1504534100.98,59893,18.38,73556.0,3.63,-28.37,-29.73,0,*74
1504534102.23,59894,18.38,73556.3,3.63,-28.79,-30.17,0,*73
1504534103.47,59895,18.38,73552.8,3.63,-30.67,-31.23,0,*72
1504534104.69,59896,18.38,73546.0,3.65,-30.73,-31.01,0,*72
1504534105.96,59897,18.38,73546.0,3.65,-29.01,-29.89,0,*77